Location: Namasale
(1.5000°N, 32.6167°E)
Time: 19:53:41
(UTC+00:00)

Envisat - Visible Passes

Search period start: 05 March 2021 00:00
Search period end: 15 March 2021 00:00
Orbit: 764 x 766 km, 98.1° (Epoch: 05 March)

Date Brightness Start Highest point End Pass type
(mag) Time Alt. Az. Time Alt. Az. Time Alt. Az.
05 Mar 5.4 02:19:46 10° NE 02:23:39 22° ESE 02:27:32 10° SSE visible
06 Mar 3.0 03:20:42 10° N 03:25:41 61° WNW 03:30:42 10° SSW visible
07 Mar 4.1 02:44:08 10° NNE 02:48:58 46° ESE 02:53:49 10° S visible
08 Mar 5.9 02:09:10 10° ENE 02:12:16 16° ESE 02:15:21 10° SE visible
08 Mar 6.7 16:21:51 10° WSW 16:22:53 11° WSW 16:23:55 10° W visible
09 Mar 2.9 03:09:14 10° N 03:14:18 84° WNW 03:19:23 10° SSW visible
10 Mar 4.7 02:33:02 10° NE 02:37:34 34° ESE 02:42:07 10° SSE visible
11 Mar 6.2 01:59:11 10° E 02:00:53 12° ESE 02:02:34 10° ESE visible
11 Mar 3.4 03:34:55 10° N 03:39:36 39° WNW 03:44:20 10° SW visible
12 Mar 3.3 02:57:51 10° NNE 03:02:54 72° ESE 03:07:57 10° S visible
13 Mar 5.3 02:22:06 10° NE 02:26:11 25° ESE 02:30:16 10° SSE visible
14 Mar 3.1 03:23:16 10° N 03:28:13 54° WNW 03:33:10 10° SSW visible
